User: anonymous   Login
Location: Lake Runnemede Observatory
(43.4843°N, 72.3851°W)
Time: 03:39:03
(UTC-05:00)
Language:

SPOT 5 - Orbit

View from above orbital plane
View from above orbital plane
View from above satellite
View from above satellite

Ground track
Ground track

The orbit data is extracted from the following two-line orbital elements,

1 27421U 02021A   15031.92106633  .00000158  00000-0  93771-4 0  3585
2 27421 098.5327 092.4254 0001054 101.9764 011.2729 14.20121156660788
Epoch (UTC): 31 January 2015 22:06:20
Eccentricity: 0.0001054
inclination: 98.5327°
perigee height: 824 km
apogee height: 826 km
right ascension of ascending node: 92.4254°
argument of perigee: 101.9764°
revolutions per day: 14.20121156
mean anomaly at epoch: 11.2729°
orbit number at epoch: 66078

The dashed part of the orbit path shows where the satellite is in the earth's shadow,  

DLR